This demonstration page uses our WeatherBlox Daily Observations layout. Learn more.

36.17497, -115.13722

Hourly Observations for March 24, 2018

Temp ( °F °C ) Dew Point ( °F °C ) Humidity (%) Winds ( mph kmh ) Pressure ( in mb ) Visibility ( mi km ) Precip ( " mm )
12:53 am 00:53 Clear 58 14.4 20 -6.7 23 23 SW 7 11 29.92 1013 10 16.0934 0 0
1:53 am 01:53 Clear 59 15 23 -5 25 25 SSW 6 9 29.91 1013 10 16.0934 0 0
2:53 am 02:53 Clear 56 13.3 26 -3.3 32 32 S 7 11 29.9 1012 10 16.0934 0 0
3:53 am 03:53 Clear 58 14.4 30 -1.1 35 35 S 9 15 29.87 1012 10 16.0934 0 0
4:53 am 04:53 Clear 60 15.6 30 -1.1 32 32 SSW 12 19 29.85 1011 10 16.0934 0 0
5:53 am 05:53 Clear 57 13.9 33 0.6 41 41 SSW 9 15 29.85 1011 10 16.0934 0 0
6:53 am 06:53 Sunny 57 13.9 32 0 39 39 S 9 15 29.85 1011 10 16.0934 0 0
7:53 am 07:53 Sunny 57 13.9 29 -1.7 34 34 S 7 11 29.86 1011 10 16.0934 0 0
8:53 am 08:53 Sunny 60 15.6 25 -3.9 26 26 SSW 13 20 29.86 1011 10 16.0934 0 0
9:53 am 09:53 Sunny 63 17.2 19 -7.2 18 18 S 13 20 29.85 1011 10 16.0934 0 0
10:53 am 10:53 Sunny 65 18.3 9 -12.8 11 11 SSW 21 33 29.85 1011 10 16.0934 0 0
11:53 am 11:53 Sunny 66 18.9 12 -11.1 12 12 SSW 17 28 29.84 1011 10 16.0934 0 0
12:53 pm 12:53 Sunny 68 20 12 -11.1 11 11 S 26 43 29.83 1010 10 16.0934 0 0
1:53 pm 13:53 Sunny 71 21.7 4 -15.6 7 7 SW 25 41 29.78 1009 10 16.0934 0 0
2:53 pm 14:53 Sunny 70 21.1 4 -15.6 7 7 SW 16 26 29.78 1009 10 16.0934 0 0
3:53 pm 15:53 Sunny 69 20.6 5 -15 8 8 SW 26 43 29.77 1008 10 16.0934 0 0
4:53 pm 16:53 Sunny 69 20.6 8 -13.3 9 9 SSW 22 35 29.76 1008 10 16.0934 0 0
5:53 pm 17:53 Sunny 67 19.4 8 -13.3 10 10 SSW 21 33 29.75 1007 10 16.0934 0 0
6:53 pm 18:53 Sunny 64 17.8 12 -11.1 13 13 SW 29 46 29.75 1008 10 16.0934 0 0
7:53 pm 19:53 Clear 62 16.7 18 -7.8 18 18 S 17 28 29.75 1008 10 16.0934 0 0
8:53 pm 20:53 Clear 61 16.1 18 -7.8 19 19 SW 32 52 29.77 1008 10 16.0934 0 0
9:53 pm 21:53 Clear 58 14.4 18 -7.8 21 21 SSW 10 17 29.8 1009 10 16.0934 0 0
10:53 pm 22:53 Clear 57 13.9 21 -6.1 25 25 SSW 21 33 29.8 1009 10 16.0934 0 0
11:53 pm 23:53 Clear 56 13.3 24 -4.4 29 29 S 14 22 29.82 1010 10 16.0934 0 0

Powered by AerisWeather